Погода в Горноправдинске

Россия / Ханты-Мансийский автономный округ - Югра     60°03′34″N   69°55′30″E
темп.,
°C
ветер,
м/с
пор.,
м/с
влажн.,
%
обл.,
%
осадки,
мм/ч
давл.,
гПа
погр.,
м
25 февраля, чт
чт2523:00−30св4109393 0.0 1023298
02:00−31ссв389571 0.0 1022232
05:00−33с389636 0.0 1022204
08:00−30с3796100 0.1 1021299
11:00−28с3594100 0.1 1021321
14:00−25ссз3693100 0.0 1021390
17:00−26ссз3794100 0.0 1023298
20:00−31ссз239737 0.0 102432
26 февраля, пт
пт2623:00−33ссз229820 0.0 102519
02:00−34сз129828 0.0 102619
05:00−34сз129833 0.0 102719
08:00−33зсз129865 0.0 102820
11:00−27з129152 0.0 1029247
14:00−24зюз228996 0.0 1029327
17:00−26зюз129691 0.0 102920
20:00−30ююз11970 0.0 102919
27 февраля, сб
сб2723:00−30ююз12970 0.0 103019
02:00−30ю12980 0.0 102919
05:00−31ю22980 0.0 103019
08:00−30ююв22986 0.0 103037
11:00−24ююв249429 0.0 1030237
14:00−20ююв249276 0.0 1029345
17:00−21юв269585 0.0 1028192
20:00−25юв389756 0.0 1028170
28 февраля, вс
вс2823:00−27юв389852 0.0 1027139
02:00−26юв399661 0.0 1026198
05:00−27вюв499444 0.0 1025221
08:00−27вюв4109258 0.0 1023252
11:00−23вюв499177 0.0 1022315
14:00−19вюв5994100 0.2 1020399
17:00−18вюв4996100 0.6 1018478
20:00−18вюв4895100 0.5 1018511
1 марта, пн
пн123:00−18вюв3796100 0.9 1017460
02:00−18в2697100 0.3 1015242
05:00−19в2498100 0.3 1015151
08:00−19в1498100 0.1 1014151
11:00−16вюв018896 0.2 1014378
14:00−14з1184100 0.0 1012563
17:00−16з2295100 0.1 101263
20:00−21зюз129953 0.0 101120